Starlink 35794

operational
NORAD ID: 67085 Int'l Des: 2025-298 Owner: SPXS Country: US Constellation: starlink
LEOCIRCULAR

Über Starlink 35794

Beschreibung wird geladen...

Live-Position

3D-Globus wird geladen...

Nächste Überflüge

Höhenverlauf

Altitude vs Time

uPlot chart will show altitude changes over time

Zweizeiliger Elementsatz

1 67085C 25298L 25349.44354167 -.00687160 00000+0 -10367-2 0 3496
2 67085 70.0020 242.9505 0005630 272.1892 308.6911 16.05048871 18
Epoch: 15. Dez. 2025 • Age: 58 hours

Aktueller Status

Höhe 273.0 km
Geschwindigkeit 7.74 km/s
Subsatellitenpunkt -17.82°S, 0.96°E
Startdatum 14. Dez. 2025
Alter 3 days
Typ internet

Technische Details

Klassifizierung Payload
Masse 575.00 kg
Trockenmasse 530.00 kg
Gesamtmasse 575.00 kg
Länge 0.30 m
Durchmesser 4.10 m
Spannweite 29.00 m
Form Box + pan
Hersteller SPXS
Bus-Typ Starlink V2MO
Phasenstatus In Orbit
Besitzer/Staat SPXS/US

Große Konstellationen

Loading constellations...